Time,TemperatureF,DewpointF,PressureIn,WindDirection,WindDirectionDegrees,WindSpeedMPH,WindSpeedGustMPH,Humidity,HourlyPrecipIn,Conditions,Clouds,dailyrainin,SolarRadiationWatts/m^2,SoftwareType,DateUTC
2013-03-08 00:05:00,27.9,23.1,30.64,ESE,123,0.0,0.0,82,0.00,,CLR,0.00,0.00,VWS V14.01,2013-03-08 06:05:00,
2013-03-08 00:10:00,27.6,22.8,30.65,ESE,123,0.0,0.0,82,0.00,,CLR,0.00,0.00,VWS V14.01,2013-03-08 06:10:00,
2013-03-08 00:15:00,27.3,22.5,30.64,ESE,123,0.0,0.0,82,0.00,,CLR,0.00,0.00,VWS V14.01,2013-03-08 06:15:00,
2013-03-08 00:20:00,27.2,22.4,30.65,ESE,123,0.0,0.0,82,0.00,,CLR,0.00,0.00,VWS V14.01,2013-03-08 06:20:00,
2013-03-08 00:25:00,26.7,22.0,30.65,ESE,123,0.0,0.0,82,0.00,,CLR,0.00,0.00,VWS V14.01,2013-03-08 06:25:00,
2013-03-08 00:30:00,26.6,22.1,30.65,ESE,123,0.0,0.0,83,0.00,,CLR,0.00,0.00,VWS V14.01,2013-03-08 06:30:00,
2013-03-08 00:35:00,26.3,21.9,30.66,ESE,123,0.0,0.0,83,0.00,,CLR,0.00,0.00,VWS V14.01,2013-03-08 06:35:00,
2013-03-08 00:40:00,26.1,21.6,30.66,ESE,123,0.0,0.0,83,0.00,,CLR,0.00,0.00,VWS V14.01,2013-03-08 06:40:00,
2013-03-08 00:45:00,26.1,21.9,30.66,ESE,123,0.0,0.0,84,0.00,,CLR,0.00,0.00,VWS V14.01,2013-03-08 06:45:00,
2013-03-08 00:50:00,26.1,21.9,30.67,ESE,123,0.0,0.0,84,0.00,,CLR,0.00,0.00,VWS V14.01,2013-03-08 06:50:00,
2013-03-08 00:55:00,26.1,21.9,30.66,ESE,123,0.0,0.0,84,0.00,,CLR,0.00,0.00,VWS V14.01,2013-03-08 06:55:00,
2013-03-08 01:00:00,26.0,21.8,30.67,ESE,123,0.0,0.0,84,0.00,,CLR,0.00,0.00,VWS V14.01,2013-03-08 07:00:00,
2013-03-08 01:05:00,25.8,21.6,30.67,ESE,123,0.0,0.0,84,0.00,,CLR,0.00,0.00,VWS V14.01,2013-03-08 07:05:00,
2013-03-08 01:10:00,26.0,21.8,30.67,ESE,123,0.0,0.0,84,0.00,,CLR,0.00,0.00,VWS V14.01,2013-03-08 07:10:00,
2013-03-08 01:15:00,26.0,21.8,30.67,ESE,123,0.0,0.0,84,0.00,,CLR,0.00,0.00,VWS V14.01,2013-03-08 07:15:00,
2013-03-08 01:20:00,25.8,21.6,30.67,ESE,123,0.0,0.0,84,0.00,,CLR,0.00,0.00,VWS V14.01,2013-03-08 07:20:00,
2013-03-08 01:25:00,26.1,22.2,30.67,ESE,123,0.0,0.0,85,0.00,,CLR,0.00,0.00,VWS V14.01,2013-03-08 07:25:00,
2013-03-08 01:30:00,26.3,22.4,30.66,ESE,123,0.0,0.0,85,0.00,,CLR,0.00,0.00,VWS V14.01,2013-03-08 07:30:00,
2013-03-08 01:35:00,26.3,22.4,30.66,ESE,123,0.0,0.0,85,0.00,,CLR,0.00,0.00,VWS V14.01,2013-03-08 07:35:00,
2013-03-08 01:40:00,26.3,22.4,30.66,ESE,123,0.0,0.0,85,0.00,,CLR,0.00,0.00,VWS V14.01,2013-03-08 07:40:00,
2013-03-08 01:45:00,26.1,22.2,30.66,ESE,123,0.0,0.0,85,0.00,,CLR,0.00,0.00,VWS V14.01,2013-03-08 07:45:00,
2013-03-08 01:51:00,26.0,22.1,30.66,ESE,123,0.0,0.0,85,0.00,,CLR,0.00,0.00,VWS V14.01,2013-03-08 07:51:00,
2013-03-08 01:56:00,25.8,21.9,30.66,ESE,123,0.0,0.0,85,0.00,,CLR,0.00,0.00,VWS V14.01,2013-03-08 07:56:00,
2013-03-08 02:01:00,25.8,21.9,30.66,ESE,123,0.0,0.0,85,0.00,,CLR,0.00,0.00,VWS V14.01,2013-03-08 08:01:00,
2013-03-08 02:06:00,26.0,22.1,30.66,ESE,123,0.0,0.0,85,0.00,,CLR,0.00,0.00,VWS V14.01,2013-03-08 08:06:00,
2013-03-08 02:11:00,26.0,22.1,30.66,ESE,123,0.0,0.0,85,0.00,,CLR,0.00,0.00,VWS V14.01,2013-03-08 08:11:00,
2013-03-08 02:16:00,26.1,22.2,30.65,ESE,123,0.0,1.0,85,0.00,,CLR,0.00,0.00,VWS V14.01,2013-03-08 08:16:00,
2013-03-08 02:21:00,26.1,22.2,30.66,ESE,123,0.0,0.0,85,0.00,,CLR,0.00,0.00,VWS V14.01,2013-03-08 08:21:00,
2013-03-08 02:26:00,26.1,22.2,30.66,ESE,123,0.0,0.0,85,0.00,,CLR,0.00,0.00,VWS V14.01,2013-03-08 08:26:00,
2013-03-08 02:31:00,26.0,22.1,30.66,ESE,123,0.0,0.0,85,0.00,,CLR,0.00,0.00,VWS V14.01,2013-03-08 08:31:00,
2013-03-08 02:36:00,25.8,21.6,30.66,ESE,123,0.0,0.0,84,0.00,,CLR,0.00,0.00,VWS V14.01,2013-03-08 08:36:00,
2013-03-08 02:41:00,25.6,21.5,30.66,ESE,123,0.0,0.0,84,0.00,,CLR,0.00,0.00,VWS V14.01,2013-03-08 08:41:00,
2013-03-08 02:46:00,25.6,21.7,30.66,ESE,123,0.0,0.0,85,0.00,,CLR,0.00,0.00,VWS V14.01,2013-03-08 08:46:00,
2013-03-08 02:51:00,25.6,21.7,30.66,ESE,123,0.0,0.0,85,0.00,,CLR,0.00,0.00,VWS V14.01,2013-03-08 08:51:00,
2013-03-08 02:56:00,25.7,21.8,30.66,ESE,123,0.0,1.0,85,0.00,,CLR,0.00,0.00,VWS V14.01,2013-03-08 08:56:00,
2013-03-08 03:02:00,25.7,21.8,30.65,ESE,123,0.0,0.0,85,0.00,,CLR,0.00,0.00,VWS V14.01,2013-03-08 09:02:00,
2013-03-08 03:08:00,25.7,21.8,30.65,ESE,123,0.0,0.0,85,0.00,,CLR,0.00,0.00,VWS V14.01,2013-03-08 09:08:00,
2013-03-08 03:13:00,25.8,21.9,30.65,ESE,123,0.0,1.0,85,0.00,,CLR,0.00,0.00,VWS V14.01,2013-03-08 09:13:00,
2013-03-08 03:18:00,26.0,22.1,30.65,ESE,123,0.0,1.0,85,0.00,,CLR,0.00,0.00,VWS V14.01,2013-03-08 09:18:00,
2013-03-08 03:23:00,26.1,22.2,30.66,ESE,123,0.0,0.0,85,0.00,,CLR,0.00,0.00,VWS V14.01,2013-03-08 09:23:00,
2013-03-08 03:28:00,26.4,22.5,30.66,ESE,123,0.0,2.0,85,0.00,,CLR,0.00,0.00,VWS V14.01,2013-03-08 09:28:00,
2013-03-08 03:33:00,26.6,22.4,30.67,ESE,123,0.0,1.0,84,0.00,,CLR,0.00,0.00,VWS V14.01,2013-03-08 09:33:00,
2013-03-08 03:38:00,26.4,22.2,30.67,ESE,123,0.0,0.0,84,0.00,,CLR,0.00,0.00,VWS V14.01,2013-03-08 09:38:00,
2013-03-08 03:43:00,26.1,21.9,30.67,ESE,123,1.0,1.0,84,0.00,,CLR,0.00,0.00,VWS V14.01,2013-03-08 09:43:00,
2013-03-08 03:48:00,25.7,21.3,30.67,ESE,123,0.0,0.0,83,0.00,,CLR,0.00,0.00,VWS V14.01,2013-03-08 09:48:00,
2013-03-08 03:53:00,25.4,21.2,30.67,ESE,123,0.0,0.0,84,0.00,,CLR,0.00,0.00,VWS V14.01,2013-03-08 09:53:00,
2013-03-08 03:59:00,25.3,21.1,30.67,ESE,123,0.0,0.0,84,0.00,,CLR,0.00,0.00,VWS V14.01,2013-03-08 09:59:00,
2013-03-08 04:04:00,25.0,20.9,30.67,ESE,123,0.0,1.0,84,0.00,,CLR,0.00,0.00,VWS V14.01,2013-03-08 10:04:00,
2013-03-08 04:09:00,24.7,20.6,30.67,ESE,123,0.0,0.0,84,0.00,,CLR,0.00,0.00,VWS V14.01,2013-03-08 10:09:00,
2013-03-08 04:14:00,24.7,20.8,30.67,ESE,123,1.0,1.0,85,0.00,,CLR,0.00,0.00,VWS V14.01,2013-03-08 10:14:00,
2013-03-08 04:19:00,25.0,21.1,30.67,ESE,123,0.0,0.0,85,0.00,,CLR,0.00,0.00,VWS V14.01,2013-03-08 10:19:00,
2013-03-08 04:24:00,25.1,21.2,30.67,ESE,123,0.0,0.0,85,0.00,,CLR,0.00,0.00,VWS V14.01,2013-03-08 10:24:00,
2013-03-08 04:29:00,25.1,21.2,30.67,ESE,123,0.0,0.0,85,0.00,,CLR,0.00,0.00,VWS V14.01,2013-03-08 10:29:00,
2013-03-08 04:34:00,25.0,21.1,30.67,ESE,123,0.0,0.0,85,0.00,,CLR,0.00,0.00,VWS V14.01,2013-03-08 10:34:00,
2013-03-08 04:39:00,24.8,20.9,30.67,ESE,123,0.0,0.0,85,0.00,,CLR,0.00,0.00,VWS V14.01,2013-03-08 10:39:00,
2013-03-08 04:44:00,24.8,20.9,30.67,ESE,123,0.0,0.0,85,0.00,,CLR,0.00,0.00,VWS V14.01,2013-03-08 10:44:00,
2013-03-08 04:49:00,25.0,21.4,30.67,ESE,123,0.0,0.0,86,0.00,,CLR,0.00,0.00,VWS V14.01,2013-03-08 10:49:00,
2013-03-08 04:54:00,25.3,21.7,30.67,ESE,123,0.0,0.0,86,0.00,,CLR,0.00,0.00,VWS V14.01,2013-03-08 10:54:00,
2013-03-08 05:00:00,25.3,21.4,30.67,ESE,123,0.0,0.0,85,0.00,,CLR,0.00,0.00,VWS V14.01,2013-03-08 11:00:00,
2013-03-08 05:05:00,25.1,21.2,30.67,ESE,123,0.0,0.0,85,0.00,,CLR,0.00,0.00,VWS V14.01,2013-03-08 11:05:00,
2013-03-08 05:10:00,25.1,21.2,30.67,ESE,123,0.0,0.0,85,0.00,,CLR,0.00,0.00,VWS V14.01,2013-03-08 11:10:00,
2013-03-08 05:15:00,25.3,21.4,30.67,ESE,123,0.0,0.0,85,0.00,,CLR,0.00,0.00,VWS V14.01,2013-03-08 11:15:00,
2013-03-08 05:20:00,25.3,21.4,30.67,ESE,123,0.0,1.0,85,0.00,,CLR,0.00,0.00,VWS V14.01,2013-03-08 11:20:00,
2013-03-08 05:25:00,25.3,21.4,30.68,ESE,123,0.0,0.0,85,0.00,,CLR,0.00,0.00,VWS V14.01,2013-03-08 11:25:00,
2013-03-08 05:31:00,25.3,21.4,30.68,ESE,123,0.0,1.0,85,0.00,,CLR,0.00,0.00,VWS V14.01,2013-03-08 11:31:00,
2013-03-08 05:36:00,25.3,21.1,30.68,ESE,123,0.0,0.0,84,0.00,,CLR,0.00,0.00,VWS V14.01,2013-03-08 11:36:00,
2013-03-08 05:41:00,25.1,21.0,30.68,ESE,123,0.0,0.0,84,0.00,,CLR,0.00,0.00,VWS V14.01,2013-03-08 11:41:00,
2013-03-08 05:47:00,25.0,20.9,30.68,ESE,123,0.0,0.0,84,0.00,,CLR,0.00,0.00,VWS V14.01,2013-03-08 11:47:00,
2013-03-08 05:52:00,24.8,20.7,30.68,ESE,123,0.0,0.0,84,0.00,,CLR,0.00,0.00,VWS V14.01,2013-03-08 11:52:00,
2013-03-08 05:58:00,24.7,20.6,30.68,ESE,123,0.0,0.0,84,0.00,,CLR,0.00,0.00,VWS V14.01,2013-03-08 11:58:00,
2013-03-08 06:03:00,24.5,20.4,30.68,ESE,123,0.0,0.0,84,0.00,,CLR,0.00,0.00,VWS V14.01,2013-03-08 12:03:00,
2013-03-08 06:08:00,24.5,20.6,30.68,ESE,123,0.0,2.0,85,0.00,,CLR,0.00,0.00,VWS V14.01,2013-03-08 12:08:00,
2013-03-08 06:13:00,24.8,20.9,30.68,ESE,123,0.0,1.0,85,0.00,,CLR,0.00,0.00,VWS V14.01,2013-03-08 12:13:00,
2013-03-08 06:18:00,25.0,21.1,30.68,ESE,123,0.0,1.0,85,0.00,,CLR,0.00,5.00,VWS V14.01,2013-03-08 12:18:00,
2013-03-08 06:23:00,25.1,21.2,30.68,ESE,123,0.0,1.0,85,0.00,,CLR,0.00,7.00,VWS V14.01,2013-03-08 12:23:00,
2013-03-08 06:29:00,25.1,21.0,30.68,ESE,123,1.0,2.0,84,0.00,,CLR,0.00,11.00,VWS V14.01,2013-03-08 12:29:00,
2013-03-08 06:34:00,25.3,21.1,30.69,ESE,123,2.0,2.0,84,0.00,,CLR,0.00,16.00,VWS V14.01,2013-03-08 12:34:00,
2013-03-08 06:39:00,25.4,21.2,30.69,ESE,123,1.0,1.0,84,0.00,,CLR,0.00,21.00,VWS V14.01,2013-03-08 12:39:00,
2013-03-08 06:44:00,25.6,21.5,30.68,ESE,123,0.0,1.0,84,0.00,,CLR,0.00,32.00,VWS V14.01,2013-03-08 12:44:00,
2013-03-08 06:49:00,25.7,21.5,30.69,ESE,123,4.0,4.0,84,0.00,,CLR,0.00,44.00,VWS V14.01,2013-03-08 12:49:00,
2013-03-08 06:54:00,26.0,21.8,30.69,ESE,123,1.0,4.0,84,0.00,,CLR,0.00,58.00,VWS V14.01,2013-03-08 12:54:00,
2013-03-08 06:59:00,26.6,22.4,30.69,ESE,123,2.0,4.0,84,0.00,,CLR,0.00,74.00,VWS V14.01,2013-03-08 12:59:00,
2013-03-08 07:04:00,27.0,22.5,30.69,ESE,122,4.0,5.0,83,0.00,,CLR,0.00,91.00,VWS V14.01,2013-03-08 13:04:00,
2013-03-08 07:09:00,27.5,22.7,30.69,ESE,116,1.0,6.0,82,0.00,,CLR,0.00,109.00,VWS V14.01,2013-03-08 13:09:00,
2013-03-08 07:14:00,27.9,22.8,30.69,ESE,116,2.0,4.0,81,0.00,,CLR,0.00,128.00,VWS V14.01,2013-03-08 13:14:00,
2013-03-08 07:19:00,28.4,23.0,30.69,East,92,1.0,2.0,80,0.00,,CLR,0.00,146.00,VWS V14.01,2013-03-08 13:19:00,
2013-03-08 07:24:00,28.8,22.8,30.69,East,96,1.0,5.0,78,0.00,,CLR,0.00,163.00,VWS V14.01,2013-03-08 13:24:00,
2013-03-08 07:29:00,29.3,23.0,30.69,East,96,5.0,5.0,77,0.00,,CLR,0.00,179.00,VWS V14.01,2013-03-08 13:29:00,
2013-03-08 07:34:00,29.5,22.9,30.69,ESE,111,4.0,5.0,76,0.00,,CLR,0.00,195.00,VWS V14.01,2013-03-08 13:34:00,
2013-03-08 07:39:00,30.0,23.0,30.69,ESE,115,5.0,5.0,75,0.00,,CLR,0.00,211.00,VWS V14.01,2013-03-08 13:39:00,
2013-03-08 07:44:00,30.3,23.0,30.69,East,88,1.0,6.0,74,0.00,,CLR,0.00,221.00,VWS V14.01,2013-03-08 13:44:00,
2013-03-08 07:49:00,30.7,23.1,30.69,ESE,105,1.0,5.0,73,0.00,,CLR,0.00,207.00,VWS V14.01,2013-03-08 13:49:00,
2013-03-08 07:54:00,31.2,23.6,30.69,ESE,113,2.0,6.0,73,0.00,,CLR,0.00,243.00,VWS V14.01,2013-03-08 13:54:00,
2013-03-08 08:00:00,31.5,23.2,30.69,ESE,114,5.0,8.0,71,0.00,,CLR,0.00,264.00,VWS V14.01,2013-03-08 14:00:00,
2013-03-08 08:05:00,31.9,23.6,30.69,SE,129,4.0,5.0,71,0.00,,CLR,0.00,279.00,VWS V14.01,2013-03-08 14:05:00,
2013-03-08 08:10:00,32.2,23.9,30.69,SE,132,5.0,6.0,71,0.01,,CLR,0.01,295.00,VWS V14.01,2013-03-08 14:10:00,
2013-03-08 08:15:00,32.5,23.8,30.69,SE,132,5.0,6.0,70,0.01,,CLR,0.01,313.00,VWS V14.01,2013-03-08 14:15:00,
2013-03-08 08:20:00,32.9,24.2,30.69,ESE,117,5.0,6.0,70,0.01,,CLR,0.01,311.00,VWS V14.01,2013-03-08 14:20:00,
2013-03-08 08:25:00,32.9,23.9,30.68,ESE,123,2.0,5.0,69,0.01,,CLR,0.01,330.00,VWS V14.01,2013-03-08 14:25:00,
2013-03-08 08:30:00,32.9,23.9,30.69,East,94,1.0,5.0,69,0.01,,CLR,0.01,366.00,VWS V14.01,2013-03-08 14:30:00,
2013-03-08 08:36:00,33.2,23.8,30.69,East,97,5.0,8.0,68,0.01,,CLR,0.01,381.00,VWS V14.01,2013-03-08 14:36:00,
2013-03-08 08:41:00,33.4,24.0,30.69,ESE,107,1.0,9.0,68,0.01,,CLR,0.01,401.00,VWS V14.01,2013-03-08 14:41:00,
2013-03-08 08:46:00,33.5,24.1,30.69,ESE,103,8.0,12.0,68,0.01,,CLR,0.01,374.00,VWS V14.01,2013-03-08 14:46:00,
2013-03-08 08:51:00,33.7,24.3,30.69,ESE,117,8.0,11.0,68,0.01,,CLR,0.01,429.00,VWS V14.01,2013-03-08 14:51:00,
2013-03-08 08:56:00,34.0,24.2,30.69,ESE,122,5.0,9.0,67,0.01,,CLR,0.01,448.00,VWS V14.01,2013-03-08 14:56:00,
2013-03-08 09:01:00,34.1,24.3,30.69,SE,142,5.0,9.0,67,0.01,,CLR,0.01,469.00,VWS V14.01,2013-03-08 15:01:00,
2013-03-08 09:06:00,34.4,24.2,30.69,ESE,119,8.0,9.0,66,0.01,,CLR,0.01,480.00,VWS V14.01,2013-03-08 15:06:00,
2013-03-08 09:11:00,34.4,24.2,30.69,SE,146,4.0,7.0,66,0.00,,CLR,0.01,469.00,VWS V14.01,2013-03-08 15:11:00,
2013-03-08 09:17:00,34.6,24.1,30.69,SE,142,10.0,13.0,65,0.00,,CLR,0.01,469.00,VWS V14.01,2013-03-08 15:17:00,
2013-03-08 09:22:00,34.6,24.4,30.69,ESE,118,2.0,12.0,66,0.00,,CLR,0.01,506.00,VWS V14.01,2013-03-08 15:22:00,
2013-03-08 09:27:00,34.7,24.5,30.69,ESE,103,1.0,7.0,66,0.00,,CLR,0.01,540.00,VWS V14.01,2013-03-08 15:27:00,
2013-03-08 09:32:00,34.9,24.7,30.69,SE,131,7.0,7.0,66,0.00,,CLR,0.01,557.00,VWS V14.01,2013-03-08 15:32:00,
2013-03-08 09:37:00,35.3,24.7,30.69,ESE,119,7.0,8.0,65,0.00,,CLR,0.01,543.00,VWS V14.01,2013-03-08 15:37:00,
2013-03-08 09:42:00,35.6,25.0,30.69,ESE,107,4.0,9.0,65,0.00,,CLR,0.01,564.00,VWS V14.01,2013-03-08 15:42:00,
2013-03-08 09:47:00,35.8,25.2,30.69,SSE,150,7.0,9.0,65,0.00,,CLR,0.01,584.00,VWS V14.01,2013-03-08 15:47:00,
2013-03-08 09:52:00,35.8,24.8,30.69,SE,130,12.0,14.0,64,0.00,,CLR,0.01,596.00,VWS V14.01,2013-03-08 15:52:00,
2013-03-08 09:57:00,35.6,25.0,30.69,SE,131,9.0,12.0,65,0.00,,CLR,0.01,606.00,VWS V14.01,2013-03-08 15:57:00,
2013-03-08 10:02:00,35.6,24.6,30.69,SE,128,8.0,10.0,64,0.00,,CLR,0.01,619.00,VWS V14.01,2013-03-08 16:02:00,
2013-03-08 10:07:00,36.0,25.0,30.69,ESE,117,5.0,11.0,64,0.00,,CLR,0.01,619.00,VWS V14.01,2013-03-08 16:07:00,
2013-03-08 10:12:00,35.9,24.9,30.69,ESE,122,9.0,9.0,64,0.00,,CLR,0.01,635.00,VWS V14.01,2013-03-08 16:12:00,
2013-03-08 10:17:00,35.6,25.0,30.69,SE,145,15.0,15.0,65,0.00,,CLR,0.01,97.00,VWS V14.01,2013-03-08 16:17:00,
2013-03-08 10:22:00,35.3,24.7,30.69,ESE,108,18.0,18.0,65,0.00,,CLR,0.01,93.00,VWS V14.01,2013-03-08 16:22:00,
2013-03-08 10:27:00,35.6,25.0,30.69,East,88,8.0,16.0,65,0.00,,CLR,0.01,93.00,VWS V14.01,2013-03-08 16:27:00,
2013-03-08 10:32:00,35.9,24.9,30.69,SE,132,9.0,18.0,64,0.00,,CLR,0.01,281.00,VWS V14.01,2013-03-08 16:32:00,
2013-03-08 10:37:00,35.9,25.3,30.69,SE,124,7.0,12.0,65,0.00,,CLR,0.01,671.00,VWS V14.01,2013-03-08 16:37:00,
2013-03-08 10:42:00,36.2,25.6,30.69,SE,134,6.0,6.0,65,0.00,,CLR,0.01,694.00,VWS V14.01,2013-03-08 16:42:00,
2013-03-08 10:47:00,36.5,25.5,30.69,SSE,152,13.0,17.0,64,0.00,,CLR,0.01,707.00,VWS V14.01,2013-03-08 16:47:00,
2013-03-08 10:52:00,36.3,25.3,30.68,SE,130,8.0,15.0,64,0.00,,CLR,0.01,705.00,VWS V14.01,2013-03-08 16:52:00,
2013-03-08 10:57:00,36.0,25.8,30.68,SSE,148,8.0,12.0,66,0.00,,CLR,0.01,715.00,VWS V14.01,2013-03-08 16:57:00,
2013-03-08 11:02:00,36.0,25.8,30.68,SE,139,12.0,14.0,66,0.00,,CLR,0.01,726.00,VWS V14.01,2013-03-08 17:02:00,
2013-03-08 11:07:00,36.0,25.4,30.68,SE,132,12.0,19.0,65,0.00,,CLR,0.01,735.00,VWS V14.01,2013-03-08 17:07:00,
2013-03-08 11:12:00,36.0,25.4,30.68,SE,128,12.0,19.0,65,0.00,,CLR,0.01,740.00,VWS V14.01,2013-03-08 17:12:00,
2013-03-08 11:17:00,36.2,26.3,30.68,SE,124,14.0,14.0,67,0.00,,CLR,0.01,744.00,VWS V14.01,2013-03-08 17:17:00,
2013-03-08 11:22:00,36.8,26.5,30.68,SE,142,6.0,8.0,66,0.00,,CLR,0.01,754.00,VWS V14.01,2013-03-08 17:22:00,
2013-03-08 11:27:00,36.9,26.2,30.68,ESE,116,15.0,16.0,65,0.00,,CLR,0.01,759.00,VWS V14.01,2013-03-08 17:27:00,
2013-03-08 11:33:00,36.8,26.1,30.67,SE,137,8.0,11.0,65,0.00,,CLR,0.01,758.00,VWS V14.01,2013-03-08 17:33:00,
2013-03-08 11:38:00,37.3,27.0,30.67,South,178,12.0,16.0,66,0.00,,CLR,0.01,763.00,VWS V14.01,2013-03-08 17:38:00,
2013-03-08 11:43:00,37.0,27.1,30.67,South,173,13.0,13.0,67,0.00,,CLR,0.01,763.00,VWS V14.01,2013-03-08 17:43:00,
2013-03-08 11:49:00,36.8,26.5,30.66,SE,126,17.0,17.0,66,0.00,,CLR,0.01,772.00,VWS V14.01,2013-03-08 17:49:00,
2013-03-08 11:54:00,36.8,26.9,30.66,SSE,153,15.0,15.0,67,0.00,,CLR,0.01,765.00,VWS V14.01,2013-03-08 17:54:00,
2013-03-08 11:59:00,37.0,27.4,30.66,SSE,149,13.0,14.0,68,0.00,,CLR,0.01,775.00,VWS V14.01,2013-03-08 17:59:00,
2013-03-08 12:04:00,37.6,26.9,30.66,SSE,147,8.0,14.0,65,0.00,,CLR,0.01,784.00,VWS V14.01,2013-03-08 18:04:00,
2013-03-08 12:10:00,37.5,27.2,30.65,SSE,157,8.0,12.0,66,0.00,,CLR,0.01,782.00,VWS V14.01,2013-03-08 18:10:00,
2013-03-08 12:15:00,37.6,27.3,30.65,SE,136,8.0,14.0,66,0.00,,CLR,0.01,775.00,VWS V14.01,2013-03-08 18:15:00,
2013-03-08 12:20:00,37.6,26.9,30.65,SE,127,13.0,13.0,65,0.00,,CLR,0.01,780.00,VWS V14.01,2013-03-08 18:20:00,
2013-03-08 12:26:00,37.5,27.2,30.65,SE,135,15.0,16.0,66,0.00,,CLR,0.01,777.00,VWS V14.01,2013-03-08 18:26:00,
2013-03-08 12:31:00,38.0,27.3,30.65,SE,137,9.0,15.0,65,0.00,,CLR,0.01,784.00,VWS V14.01,2013-03-08 18:31:00,
2013-03-08 12:36:00,37.9,27.6,30.64,SE,144,10.0,13.0,66,0.00,,CLR,0.01,780.00,VWS V14.01,2013-03-08 18:36:00,
2013-03-08 12:41:00,37.8,27.5,30.64,SSE,155,10.0,15.0,66,0.00,,CLR,0.01,775.00,VWS V14.01,2013-03-08 18:41:00,
2013-03-08 12:46:00,37.8,27.8,30.63,ESE,105,9.0,13.0,67,0.00,,CLR,0.01,768.00,VWS V14.01,2013-03-08 18:46:00,
2013-03-08 12:51:00,38.6,28.6,30.62,SE,140,11.0,11.0,67,0.00,,CLR,0.01,772.00,VWS V14.01,2013-03-08 18:51:00,
2013-03-08 12:57:00,38.2,28.2,30.62,East,95,8.0,11.0,67,0.00,,CLR,0.01,766.00,VWS V14.01,2013-03-08 18:57:00,
2013-03-08 13:02:00,38.5,28.1,30.61,SE,141,12.0,17.0,66,0.00,,CLR,0.01,756.00,VWS V14.01,2013-03-08 19:02:00,
2013-03-08 13:07:00,38.5,28.1,30.61,SE,144,10.0,13.0,66,0.00,,CLR,0.01,759.00,VWS V14.01,2013-03-08 19:07:00,
2013-03-08 13:12:00,38.5,28.1,30.61,SSE,150,13.0,15.0,66,0.00,,CLR,0.01,747.00,VWS V14.01,2013-03-08 19:12:00,
2013-03-08 13:18:00,38.6,28.2,30.61,SE,134,9.0,13.0,66,0.00,,CLR,0.01,756.00,VWS V14.01,2013-03-08 19:18:00,
2013-03-08 13:24:00,38.9,28.9,30.60,ESE,121,14.0,15.0,67,0.00,,CLR,0.01,724.00,VWS V14.01,2013-03-08 19:24:00,
2013-03-08 13:29:00,39.2,28.4,30.60,SE,132,18.0,18.0,65,0.00,,CLR,0.01,691.00,VWS V14.01,2013-03-08 19:29:00,
2013-03-08 13:35:00,39.2,28.8,30.59,SSE,159,6.0,10.0,66,0.00,,CLR,0.01,726.00,VWS V14.01,2013-03-08 19:35:00,
2013-03-08 13:40:00,39.9,29.5,30.58,ESE,108,6.0,8.0,66,0.00,,CLR,0.01,735.00,VWS V14.01,2013-03-08 19:40:00,
2013-03-08 13:45:00,40.1,28.9,30.58,SE,138,13.0,13.0,64,0.00,,CLR,0.01,728.00,VWS V14.01,2013-03-08 19:45:00,
2013-03-08 13:50:00,40.2,29.4,30.58,SE,130,8.0,14.0,65,0.00,,CLR,0.01,719.00,VWS V14.01,2013-03-08 19:50:00,
2013-03-08 13:55:00,40.3,29.5,30.58,East,79,1.0,8.0,65,0.00,,CLR,0.01,710.00,VWS V14.01,2013-03-08 19:55:00,
2013-03-08 14:00:00,40.8,29.6,30.58,ENE,78,7.0,16.0,64,0.00,,CLR,0.01,661.00,VWS V14.01,2013-03-08 20:00:00,
2013-03-08 14:06:00,40.5,29.7,30.58,ESE,105,8.0,9.0,65,0.00,,CLR,0.01,719.00,VWS V14.01,2013-03-08 20:06:00,
2013-03-08 14:12:00,41.2,30.3,30.58,SE,128,9.0,9.0,65,0.00,,CLR,0.01,631.00,VWS V14.01,2013-03-08 20:12:00,
2013-03-08 14:17:00,41.3,30.4,30.57,SSE,158,7.0,7.0,65,0.00,,CLR,0.01,578.00,VWS V14.01,2013-03-08 20:17:00,
2013-03-08 14:22:00,41.3,30.4,30.58,SSE,159,7.0,10.0,65,0.00,,CLR,0.01,561.00,VWS V14.01,2013-03-08 20:22:00,
2013-03-08 14:27:00,41.1,30.2,30.58,SSE,163,10.0,11.0,65,0.00,,CLR,0.01,510.00,VWS V14.01,2013-03-08 20:27:00,
2013-03-08 14:33:00,40.9,30.1,30.57,SE,130,9.0,13.0,65,0.00,,CLR,0.01,543.00,VWS V14.01,2013-03-08 20:33:00,
2013-03-08 14:38:00,41.3,30.8,30.57,SE,135,8.0,10.0,66,0.00,,CLR,0.01,508.00,VWS V14.01,2013-03-08 20:38:00,
2013-03-08 14:43:00,41.3,30.4,30.57,SSE,153,7.0,11.0,65,0.00,,CLR,0.01,501.00,VWS V14.01,2013-03-08 20:43:00,
2013-03-08 14:48:00,41.3,30.8,30.57,SE,132,5.0,7.0,66,0.00,,CLR,0.01,401.00,VWS V14.01,2013-03-08 20:48:00,
2013-03-08 14:53:00,41.6,30.7,30.57,ESE,115,7.0,13.0,65,0.00,,CLR,0.01,492.00,VWS V14.01,2013-03-08 20:53:00,
2013-03-08 14:58:00,41.2,31.1,30.56,SSE,152,8.0,14.0,67,0.00,,CLR,0.01,462.00,VWS V14.01,2013-03-08 20:58:00,
2013-03-08 15:03:00,41.2,30.7,30.56,SE,144,9.0,12.0,66,0.00,,CLR,0.01,522.00,VWS V14.01,2013-03-08 21:03:00,
2013-03-08 15:08:00,41.5,31.0,30.56,SE,125,9.0,12.0,66,0.00,,CLR,0.01,494.00,VWS V14.01,2013-03-08 21:08:00,
2013-03-08 15:13:00,41.6,31.5,30.57,SE,135,10.0,12.0,67,0.00,,CLR,0.01,411.00,VWS V14.01,2013-03-08 21:13:00,
2013-03-08 15:18:00,41.8,31.3,30.56,ESE,107,2.0,9.0,66,0.00,,CLR,0.01,434.00,VWS V14.01,2013-03-08 21:18:00,
2013-03-08 15:23:00,41.9,31.0,30.56,ESE,111,4.0,9.0,65,0.00,,CLR,0.01,496.00,VWS V14.01,2013-03-08 21:23:00,
2013-03-08 15:28:00,41.9,31.0,30.56,ESE,123,11.0,11.0,65,0.00,,CLR,0.01,496.00,VWS V14.01,2013-03-08 21:28:00,
2013-03-08 15:33:00,42.1,31.6,30.56,SSE,148,7.0,8.0,66,0.00,,CLR,0.01,471.00,VWS V14.01,2013-03-08 21:33:00,
2013-03-08 15:38:00,42.2,31.3,30.55,South,171,7.0,12.0,65,0.00,,CLR,0.01,439.00,VWS V14.01,2013-03-08 21:38:00,
2013-03-08 15:44:00,41.9,31.0,30.55,SE,146,10.0,13.0,65,0.00,,CLR,0.01,417.00,VWS V14.01,2013-03-08 21:44:00,
2013-03-08 15:49:00,41.9,31.0,30.55,SE,139,11.0,12.0,65,0.00,,CLR,0.01,401.00,VWS V14.01,2013-03-08 21:49:00,
2013-03-08 15:54:00,41.9,31.4,30.56,SE,141,7.0,11.0,66,0.00,,CLR,0.01,383.00,VWS V14.01,2013-03-08 21:54:00,
2013-03-08 15:59:00,42.3,31.8,30.56,SSE,150,9.0,9.0,66,0.00,,CLR,0.01,369.00,VWS V14.01,2013-03-08 21:59:00,
2013-03-08 16:04:00,42.1,31.6,30.55,ESE,107,12.0,14.0,66,0.00,,CLR,0.01,352.00,VWS V14.01,2013-03-08 22:04:00,
2013-03-08 16:09:00,42.2,31.3,30.55,SE,126,5.0,12.0,65,0.00,,CLR,0.01,327.00,VWS V14.01,2013-03-08 22:09:00,
2013-03-08 16:15:00,42.3,31.4,30.55,East,98,12.0,12.0,65,0.00,,CLR,0.01,276.00,VWS V14.01,2013-03-08 22:15:00,
2013-03-08 16:20:00,42.2,31.3,30.55,East,94,7.0,8.0,65,0.00,,CLR,0.01,279.00,VWS V14.01,2013-03-08 22:20:00,
2013-03-08 16:25:00,42.1,31.2,30.55,East,93,7.0,8.0,65,0.00,,CLR,0.01,209.00,VWS V14.01,2013-03-08 22:25:00,
2013-03-08 16:31:00,41.9,31.0,30.55,SE,126,8.0,11.0,65,0.00,,CLR,0.01,213.00,VWS V14.01,2013-03-08 22:31:00,
2013-03-08 16:36:00,41.9,31.0,30.55,SE,128,6.0,6.0,65,0.00,,CLR,0.01,192.00,VWS V14.01,2013-03-08 22:36:00,
2013-03-08 16:41:00,42.1,31.2,30.55,SE,127,7.0,7.0,65,0.00,,CLR,0.01,148.00,VWS V14.01,2013-03-08 22:41:00,
2013-03-08 16:46:00,41.8,31.3,30.55,SE,130,5.0,9.0,66,0.00,,CLR,0.01,93.00,VWS V14.01,2013-03-08 22:46:00,
2013-03-08 16:51:00,41.6,31.5,30.56,SE,132,7.0,7.0,67,0.00,,CLR,0.01,67.00,VWS V14.01,2013-03-08 22:51:00,
2013-03-08 16:57:00,41.5,31.4,30.56,SE,124,5.0,7.0,67,0.00,,CLR,0.01,67.00,VWS V14.01,2013-03-08 22:57:00,
2013-03-08 17:02:00,41.6,31.5,30.55,East,98,5.0,6.0,67,0.00,,CLR,0.01,69.00,VWS V14.01,2013-03-08 23:02:00,
2013-03-08 17:07:00,41.5,31.4,30.56,East,83,2.0,7.0,67,0.00,,CLR,0.01,67.00,VWS V14.01,2013-03-08 23:07:00,
2013-03-08 17:12:00,41.3,31.5,30.56,East,94,5.0,6.0,68,0.00,,CLR,0.01,63.00,VWS V14.01,2013-03-08 23:12:00,
2013-03-08 17:17:00,40.9,31.9,30.56,ENE,76,1.0,2.0,70,0.00,,CLR,0.01,58.00,VWS V14.01,2013-03-08 23:17:00,
2013-03-08 17:22:00,40.9,32.2,30.55,ESE,111,1.0,6.0,71,0.00,,CLR,0.01,51.00,VWS V14.01,2013-03-08 23:22:00,
2013-03-08 17:27:00,40.8,32.1,30.56,ENE,78,2.0,6.0,71,0.00,,CLR,0.01,39.00,VWS V14.01,2013-03-08 23:27:00,
2013-03-08 17:32:00,40.5,31.9,30.56,ESE,111,4.0,7.0,71,0.00,,CLR,0.01,30.00,VWS V14.01,2013-03-08 23:32:00,
2013-03-08 17:37:00,40.3,31.7,30.56,ESE,103,2.0,2.0,71,0.00,,CLR,0.01,21.00,VWS V14.01,2013-03-08 23:37:00,
2013-03-08 17:42:00,40.2,31.9,30.56,ESE,103,1.0,5.0,72,0.00,,CLR,0.01,14.00,VWS V14.01,2013-03-08 23:42:00,
2013-03-08 17:47:00,40.1,31.8,30.57,ESE,103,0.0,1.0,72,0.00,,CLR,0.01,7.00,VWS V14.01,2013-03-08 23:47:00,
2013-03-08 17:52:00,39.9,32.0,30.57,ESE,103,0.0,2.0,73,0.00,,CLR,0.01,0.00,VWS V14.01,2013-03-08 23:52:00,
2013-03-08 17:57:00,39.6,31.7,30.56,ESE,103,2.0,4.0,73,0.00,,CLR,0.01,0.00,VWS V14.01,2013-03-08 23:57:00,
2013-03-08 18:02:00,39.3,31.4,30.56,ESE,103,1.0,2.0,73,0.00,,CLR,0.01,0.00,VWS V14.01,2013-03-09 00:02:00,
2013-03-08 18:07:00,39.2,31.3,30.56,ESE,103,0.0,0.0,73,0.00,,CLR,0.01,0.00,VWS V14.01,2013-03-09 00:07:00,
2013-03-08 18:12:00,38.9,31.3,30.56,ESE,103,1.0,2.0,74,0.00,,CLR,0.01,0.00,VWS V14.01,2013-03-09 00:12:00,
2013-03-08 18:17:00,38.8,31.2,30.56,ESE,103,1.0,4.0,74,0.00,,CLR,0.01,0.00,VWS V14.01,2013-03-09 00:17:00,
2013-03-08 18:22:00,38.6,31.4,30.56,ESE,103,0.0,2.0,75,0.00,,CLR,0.01,0.00,VWS V14.01,2013-03-09 00:22:00,
2013-03-08 18:27:00,38.5,31.3,30.56,ESE,103,1.0,5.0,75,0.00,,CLR,0.01,0.00,VWS V14.01,2013-03-09 00:27:00,
2013-03-08 18:32:00,38.5,31.3,30.56,ESE,103,1.0,2.0,75,0.00,,CLR,0.01,0.00,VWS V14.01,2013-03-09 00:32:00,
2013-03-08 18:37:00,38.3,31.4,30.56,ESE,103,2.0,4.0,76,0.00,,CLR,0.01,0.00,VWS V14.01,2013-03-09 00:37:00,
2013-03-08 18:42:00,38.2,31.3,30.56,ESE,103,2.0,2.0,76,0.00,,CLR,0.01,0.00,VWS V14.01,2013-03-09 00:42:00,
2013-03-08 18:47:00,38.2,31.3,30.56,ESE,103,0.0,1.0,76,0.00,,CLR,0.01,0.00,VWS V14.01,2013-03-09 00:47:00,
2013-03-08 18:52:00,38.0,31.1,30.56,ESE,103,2.0,2.0,76,0.00,,CLR,0.01,0.00,VWS V14.01,2013-03-09 00:52:00,
2013-03-08 18:57:00,38.0,31.1,30.55,ESE,103,0.0,0.0,76,0.00,,CLR,0.01,0.00,VWS V14.01,2013-03-09 00:57:00,
2013-03-08 19:03:00,37.9,31.0,30.56,East,97,1.0,4.0,76,0.00,,CLR,0.01,0.00,VWS V14.01,2013-03-09 01:03:00,
2013-03-08 19:08:00,37.9,31.0,30.56,East,97,1.0,1.0,76,0.00,,CLR,0.01,0.00,VWS V14.01,2013-03-09 01:08:00,
2013-03-08 19:13:00,37.9,31.0,30.55,East,101,0.0,6.0,76,0.00,,CLR,0.01,0.00,VWS V14.01,2013-03-09 01:13:00,
2013-03-08 19:18:00,37.9,30.7,30.55,East,101,1.0,6.0,75,0.00,,CLR,0.01,0.00,VWS V14.01,2013-03-09 01:18:00,
2013-03-08 19:24:00,37.9,30.7,30.54,East,80,0.0,5.0,75,0.00,,CLR,0.01,0.00,VWS V14.01,2013-03-09 01:24:00,
2013-03-08 19:29:00,37.8,30.6,30.54,East,84,0.0,7.0,75,0.00,,CLR,0.01,0.00,VWS V14.01,2013-03-09 01:29:00,
2013-03-08 19:34:00,37.8,30.6,30.54,ESE,107,1.0,2.0,75,0.00,,CLR,0.01,0.00,VWS V14.01,2013-03-09 01:34:00,
2013-03-08 19:39:00,37.8,30.6,30.54,ESE,107,2.0,5.0,75,0.00,,CLR,0.01,0.00,VWS V14.01,2013-03-09 01:39:00,
2013-03-08 19:44:00,37.8,30.6,30.54,ESE,114,7.0,8.0,75,0.00,,CLR,0.01,0.00,VWS V14.01,2013-03-09 01:44:00,
2013-03-08 19:49:00,37.9,30.7,30.54,ESE,116,4.0,4.0,75,0.00,,CLR,0.01,0.00,VWS V14.01,2013-03-09 01:49:00,
2013-03-08 19:54:00,38.0,30.5,30.54,ESE,115,2.0,4.0,74,0.00,,CLR,0.01,0.00,VWS V14.01,2013-03-09 01:54:00,
2013-03-08 19:59:00,38.0,30.5,30.53,ESE,116,2.0,4.0,74,0.00,,CLR,0.01,0.00,VWS V14.01,2013-03-09 01:59:00,
2013-03-08 20:04:00,37.9,30.4,30.53,ESE,115,1.0,4.0,74,0.00,,CLR,0.01,0.00,VWS V14.01,2013-03-09 02:04:00,
2013-03-08 20:09:00,37.9,30.4,30.53,ESE,103,0.0,4.0,74,0.00,,CLR,0.01,0.00,VWS V14.01,2013-03-09 02:09:00,
2013-03-08 20:14:00,37.8,30.3,30.52,ESE,103,2.0,2.0,74,0.00,,CLR,0.01,0.00,VWS V14.01,2013-03-09 02:14:00,
2013-03-08 20:19:00,37.6,30.1,30.52,East,96,1.0,2.0,74,0.00,,CLR,0.01,0.00,VWS V14.01,2013-03-09 02:19:00,
2013-03-08 20:24:00,37.5,30.0,30.52,ENE,61,6.0,7.0,74,0.00,,CLR,0.01,0.00,VWS V14.01,2013-03-09 02:24:00,
2013-03-08 20:29:00,37.3,29.8,30.52,East,92,0.0,2.0,74,0.00,,CLR,0.01,0.00,VWS V14.01,2013-03-09 02:29:00,
2013-03-08 20:34:00,37.3,29.8,30.52,East,90,6.0,8.0,74,0.00,,CLR,0.01,0.00,VWS V14.01,2013-03-09 02:34:00,
2013-03-08 20:39:00,37.2,30.0,30.52,East,82,2.0,5.0,75,0.00,,CLR,0.01,0.00,VWS V14.01,2013-03-09 02:39:00,
2013-03-08 20:44:00,37.2,30.0,30.52,East,97,0.0,1.0,75,0.00,,CLR,0.01,0.00,VWS V14.01,2013-03-09 02:44:00,
2013-03-08 20:49:00,37.0,29.8,30.52,ESE,105,2.0,2.0,75,0.00,,CLR,0.01,0.00,VWS V14.01,2013-03-09 02:49:00,
2013-03-08 20:54:00,36.9,29.7,30.52,SE,130,0.0,8.0,75,0.00,,CLR,0.01,0.00,VWS V14.01,2013-03-09 02:54:00,
2013-03-08 20:59:00,36.8,29.6,30.52,ESE,116,7.0,7.0,75,0.00,,CLR,0.01,0.00,VWS V14.01,2013-03-09 02:59:00,
2013-03-08 21:04:00,36.6,29.4,30.52,ESE,111,1.0,5.0,75,0.00,,CLR,0.01,0.00,VWS V14.01,2013-03-09 03:04:00,
2013-03-08 21:09:00,36.5,29.3,30.51,ESE,106,5.0,6.0,75,0.00,,CLR,0.01,0.00,VWS V14.01,2013-03-09 03:09:00,
2013-03-08 21:14:00,36.5,29.3,30.51,ESE,107,1.0,5.0,75,0.00,,CLR,0.01,0.00,VWS V14.01,2013-03-09 03:14:00,
2013-03-08 21:19:00,36.3,29.1,30.51,ESE,106,4.0,5.0,75,0.00,,CLR,0.01,0.00,VWS V14.01,2013-03-09 03:19:00,
2013-03-08 21:24:00,36.3,29.5,30.51,East,99,1.0,4.0,76,0.00,,CLR,0.01,0.00,VWS V14.01,2013-03-09 03:24:00,
2013-03-08 21:29:00,36.3,29.5,30.52,ESE,115,1.0,5.0,76,0.00,,CLR,0.01,0.00,VWS V14.01,2013-03-09 03:29:00,
2013-03-08 21:35:00,36.3,29.1,30.51,East,89,0.0,5.0,75,0.00,,CLR,0.01,0.00,VWS V14.01,2013-03-09 03:35:00,
2013-03-08 21:41:00,36.3,29.1,30.51,ESE,111,6.0,7.0,75,0.00,,CLR,0.01,0.00,VWS V14.01,2013-03-09 03:41:00,
2013-03-08 21:46:00,36.5,29.0,30.51,ESE,108,8.0,8.0,74,0.00,,CLR,0.01,0.00,VWS V14.01,2013-03-09 03:46:00,
2013-03-08 21:51:00,36.6,28.8,30.51,ESE,119,5.0,7.0,73,0.00,,CLR,0.01,0.00,VWS V14.01,2013-03-09 03:51:00,
2013-03-08 21:56:00,36.8,29.0,30.50,ENE,74,2.0,7.0,73,0.00,,CLR,0.01,0.00,VWS V14.01,2013-03-09 03:56:00,
2013-03-08 22:01:00,36.8,28.6,30.50,SE,135,7.0,8.0,72,0.00,,CLR,0.01,0.00,VWS V14.01,2013-03-09 04:01:00,
2013-03-08 22:06:00,36.9,28.7,30.50,East,84,3.0,6.0,72,0.00,,CLR,0.01,0.00,VWS V14.01,2013-03-09 04:06:00,
2013-03-08 22:11:00,36.8,28.6,30.49,East,90,6.0,8.0,72,0.00,,CLR,0.01,0.00,VWS V14.01,2013-03-09 04:11:00,
2013-03-08 22:16:00,36.8,28.6,30.49,ESE,105,4.0,11.0,72,0.00,,CLR,0.01,0.00,VWS V14.01,2013-03-09 04:16:00,
2013-03-08 22:21:00,36.6,28.4,30.49,SE,132,4.0,7.0,72,0.00,,CLR,0.01,0.00,VWS V14.01,2013-03-09 04:21:00,
2013-03-08 22:26:00,36.6,28.4,30.49,SE,130,1.0,15.0,72,0.00,,CLR,0.01,0.00,VWS V14.01,2013-03-09 04:26:00,
2013-03-08 22:31:00,36.5,28.4,30.49,SE,128,14.0,14.0,72,0.00,,CLR,0.01,0.00,VWS V14.01,2013-03-09 04:31:00,
2013-03-08 22:36:00,36.6,28.4,30.49,SE,140,7.0,8.0,72,0.00,,CLR,0.01,0.00,VWS V14.01,2013-03-09 04:36:00,
2013-03-08 22:41:00,36.6,28.4,30.49,SE,126,5.0,7.0,72,0.00,,CLR,0.01,0.00,VWS V14.01,2013-03-09 04:41:00,
2013-03-08 22:46:00,36.6,28.4,30.49,ESE,113,4.0,7.0,72,0.00,,CLR,0.01,0.00,VWS V14.01,2013-03-09 04:46:00,
2013-03-08 22:51:00,36.5,28.4,30.48,ESE,113,5.0,6.0,72,0.00,,CLR,0.01,0.00,VWS V14.01,2013-03-09 04:51:00,
2013-03-08 22:56:00,36.5,28.4,30.48,ESE,109,9.0,9.0,72,0.00,,CLR,0.01,0.00,VWS V14.01,2013-03-09 04:56:00,
2013-03-08 23:00:00,36.5,28.4,30.48,SE,132,4.0,7.0,72,0.00,,CLR,0.01,0.00,VWS V14.01,2013-03-09 05:00:00,
2013-03-08 23:01:00,36.5,28.4,30.48,ESE,113,7.0,9.0,72,0.00,,CLR,0.01,0.00,VWS V14.01,2013-03-09 05:01:00,
2013-03-08 23:05:00,36.8,28.6,30.49,SE,132,7.0,11.0,72,0.00,,CLR,0.01,0.00,VWS V14.01,2013-03-09 05:05:00,
2013-03-08 23:10:00,37.0,28.5,30.48,SE,130,5.0,12.0,71,0.00,,CLR,0.01,0.00,VWS V14.01,2013-03-09 05:10:00,
2013-03-08 23:12:00,37.2,28.3,30.48,SE,143,11.0,12.0,70,0.00,,CLR,0.01,0.00,VWS V14.01,2013-03-09 05:12:00,
2013-03-08 23:17:00,37.5,28.3,30.48,ESE,106,5.0,11.0,69,0.00,,CLR,0.01,0.00,VWS V14.01,2013-03-09 05:17:00,
2013-03-08 23:22:00,37.3,28.1,30.48,ESE,117,6.0,14.0,69,0.00,,CLR,0.01,0.00,VWS V14.01,2013-03-09 05:22:00,
2013-03-08 23:27:00,37.0,27.8,30.48,ESE,117,6.0,12.0,69,0.00,,CLR,0.01,0.00,VWS V14.01,2013-03-09 05:27:00,
2013-03-08 23:32:00,36.9,28.0,30.47,ESE,108,5.0,11.0,70,0.00,,CLR,0.01,0.00,VWS V14.01,2013-03-09 05:32:00,
2013-03-08 23:37:00,36.8,28.0,30.47,SE,142,9.0,12.0,70,0.00,,CLR,0.01,0.00,VWS V14.01,2013-03-09 05:37:00,
2013-03-08 23:42:00,36.8,28.3,30.47,SE,146,12.0,13.0,71,0.00,,CLR,0.01,0.00,VWS V14.01,2013-03-09 05:42:00,
2013-03-08 23:48:00,36.6,28.1,30.46,SE,134,5.0,15.0,71,0.00,,CLR,0.01,0.00,VWS V14.01,2013-03-09 05:48:00,
2013-03-08 23:53:00,36.6,28.1,30.46,SE,132,7.0,13.0,71,0.00,,CLR,0.01,0.00,VWS V14.01,2013-03-09 05:53:00,
2013-03-08 23:58:00,36.5,28.0,30.44,ESE,116,13.0,15.0,71,0.00,,CLR,0.01,0.00,VWS V14.01,2013-03-09 05:58:00,